WetterOnline ( https://www.wetteronline.de )

Wetter aktuell Södra Sunderbyn

Aktuelles Wetter: Lulea (17m)

6-stündlich | Neueste Meldungen
Ortszeit Temperatur Wetter
Sa, 28.11. 13:00 -5.7° C bedeckt
Sa, 28.11. 7:00 -10.7° C wolkenlos
Sa, 28.11. 1:00 -8.8° C wolkenlos
Fr, 27.11. 19:00 -5.9° C wolkig
Fr, 27.11. 13:00 -7.2° C wolkenlos
Fr, 27.11. 7:00 -7.2° C fast wolkenlos
Fr, 27.11. 1:00 -5.7° C wolkenlos
Do, 26.11. 19:00 -3.5° C wolkenlos
Ortszeit Temperatur Wetter
Sa, 28.11. 17:50 1° C bedeckt
Sa, 28.11. 17:20 1° C bedeckt
Sa, 28.11. 17:00 0.8° C bedeckt
Sa, 28.11. 16:50 1° C bedeckt
Sa, 28.11. 16:20 1° C bedeckt
Sa, 28.11. 16:00 0.6° C bedeckt
Sa, 28.11. 15:50 0° C bedeckt
Sa, 28.11. 15:20 0° C bedeckt
Sa, 28.11. 15:00 -0.1° C bedeckt
Sa, 28.11. 14:20 -3° C bedeckt
Ortszeit Relative Feuchte Sichtweite
Sa, 28.11. 13:00 96% 26 km
Sa, 28.11. 7:00 92% 26 km
Sa, 28.11. 1:00 95% 35 km
Fr, 27.11. 19:00 94% 19 km
Fr, 27.11. 13:00 91% 50 km
Fr, 27.11. 7:00 89% >70 km
Fr, 27.11. 1:00 88% 50 km
Do, 26.11. 19:00 87% 40 km
Ortszeit Relative Feuchte Sichtweite
Sa, 28.11. 17:50 93% >10 km
Sa, 28.11. 17:20 93% >10 km
Sa, 28.11. 17:00 94% 45 km
Sa, 28.11. 16:50 93% >10 km
Sa, 28.11. 16:20 93% >10 km
Sa, 28.11. 16:00 95% 45 km
Sa, 28.11. 15:50 100% >10 km
Sa, 28.11. 15:20 100% >10 km
Sa, 28.11. 15:00 98% 45 km
Sa, 28.11. 14:20 100% >10 km
Ortszeit Niederschlagsmenge Niederschlagsart
Sa, 28.11. 13:00 0.0 l/m2 -
Sa, 28.11. 7:00 0.0 l/m2 in 12 Std. -
Sa, 28.11. 1:00 0.0 l/m2 in 6 Std. -
Fr, 27.11. 19:00 0.0 l/m2 in 12 Std. -
Fr, 27.11. 13:00 0.0 l/m2 in 6 Std. -
Fr, 27.11. 7:00 0.0 l/m2 in 12 Std. -
Fr, 27.11. 1:00 0.0 l/m2 -
Do, 26.11. 19:00 0.1 l/m2 in 12 Std. -
Ortszeit Niederschlagsmenge Niederschlagsart
Sa, 28.11. 17:50 keine Meldung -
Sa, 28.11. 17:20 keine Meldung -
Sa, 28.11. 17:00 0.0 l/m2 in 1 Std. -
Sa, 28.11. 16:50 keine Meldung -
Sa, 28.11. 16:20 keine Meldung -
Sa, 28.11. 16:00 0.0 l/m2 in 1 Std. -
Sa, 28.11. 15:50 keine Meldung -
Sa, 28.11. 15:20 keine Meldung -
Sa, 28.11. 15:00 0.0 l/m2 in 1 Std. -
Sa, 28.11. 14:20 keine Meldung -
Ortszeit Stärke Spitze Richtung
km/h Bft. km/h Grad Sektor
Sa, 28.11. 13:00 4 1 4 200° S
Sa, 28.11. 7:00 7 2 7 320° NW
Sa, 28.11. 1:00 7 2 - 330° NW
Fr, 27.11. 19:00 7 2 7 330° NW
Fr, 27.11. 13:00 4 1 - 300° NW
Fr, 27.11. 7:00 7 2 - 350° N
Fr, 27.11. 1:00 14 3 25 340° N
Do, 26.11. 19:00 22 4 - 340° N
Ortszeit Stärke Spitze Richtung
km/h Bft. km/h Grad Sektor
Sa, 28.11. 17:50 19 3 - 180° S
Sa, 28.11. 17:20 20 4 - 180° S
Sa, 28.11. 17:00 18 3 25 180° S
Sa, 28.11. 16:50 17 3 - 190° S
Sa, 28.11. 16:20 13 3 - 190° S
Sa, 28.11. 16:00 14 3 22 190° S
Sa, 28.11. 15:50 15 3 - 190° S
Sa, 28.11. 15:20 13 3 - 200° S
Sa, 28.11. 15:00 11 2 14 200° S
Sa, 28.11. 14:20 9 2 - 200° S
Ortszeit Untergrenze Bedeckung Gattung
total tief tief mittel hoch
Sa, 28.11. 13:00 240 m 8/8 8/8 - - -
Sa, 28.11. 7:00 - 0/8 0/8 - - -
Sa, 28.11. 1:00 - 0/8 0/8 - - -
Fr, 27.11. 19:00 330 m 8/8 3/8 - - -
Fr, 27.11. 13:00 - 0/8 0/8 - - -
Fr, 27.11. 7:00 6300 m 1/8 1/8 - - Ci
Fr, 27.11. 1:00 - 0/8 0/8 - - -
Do, 26.11. 19:00 - 0/8 0/8 - - -
Ortszeit Bedeckungsgrad in Achtel und Wolkenuntergrenze
Sa, 28.11. 17:50 8(270m)
Sa, 28.11. 17:20 8(240m)
Sa, 28.11. 17:00 8(240m)
Sa, 28.11. 16:50 8(270m)
Sa, 28.11. 16:20 8(270m)
Sa, 28.11. 16:00 8(270m)
Sa, 28.11. 15:50 8(270m)
Sa, 28.11. 15:20 8(240m)
Sa, 28.11. 15:00 8(240m)
Sa, 28.11. 14:20 5-7(150m) 8(240m)
Ortszeit Luftdruck NN (hPa) Tendenz (hPa in 3 Std.)
Sa, 28.11. 13:00 1029 0,0
Sa, 28.11. 7:00 1027 + 1,1
Sa, 28.11. 1:00 1025 + 1,5
Fr, 27.11. 19:00 1023 + 1,4
Fr, 27.11. 13:00 1020 + 0,6
Fr, 27.11. 7:00 1017 + 1,4
Fr, 27.11. 1:00 1014 + 1,7
Do, 26.11. 19:00 1010 + 2,1
Ortszeit Luftdruck NN (hPa) Tendenz (hPa in 3 Std.)
Sa, 28.11. 17:50 1027 keine Meldung
Sa, 28.11. 17:20 1028 keine Meldung
Sa, 28.11. 17:00 1028 - 0,3
Sa, 28.11. 16:50 1028 keine Meldung
Sa, 28.11. 16:20 1028 keine Meldung
Sa, 28.11. 16:00 1028 - 0,3
Sa, 28.11. 15:50 1028 keine Meldung
Sa, 28.11. 15:20 1028 keine Meldung
Sa, 28.11. 15:00 1028 - 0,3
Sa, 28.11. 14:20 1028 keine Meldung
Ortszeit Schneehöhe (cm)
Sa, 28.11. 13:00 -
Sa, 28.11. 7:00 -
Sa, 28.11. 1:00 -
Fr, 27.11. 19:00 -
Fr, 27.11. 13:00 -
Fr, 27.11. 7:00 2
Fr, 27.11. 1:00 -
Do, 26.11. 19:00 -
Ortszeit Schneehöhe (cm)
Sa, 28.11. 17:50 -
Sa, 28.11. 17:20 -
Sa, 28.11. 17:00 -
Sa, 28.11. 16:50 -
Sa, 28.11. 16:20 -
Sa, 28.11. 16:00 -
Sa, 28.11. 15:50 -
Sa, 28.11. 15:20 -
Sa, 28.11. 15:00 -
Sa, 28.11. 14:20 -
Link zu dieser Seite / Seite empfehlen

Das Wetter in ...